Tracking 28356 objects as of 7-Dec-2023
HD Live streaming from Space Station
objects crossing your sky now

STARLINK-2645

Track STARLINK-2645 now!
10-day predictions
STARLINK-2645 is classified as:


NORAD ID: 48444
Int'l Code: 2021-040S
Perigee: 553.8 km
Apogee: 555.0 km
Inclination: 53.1 °
Period: 95.6 minutes
Semi major axis: 6925 km
RCS: Unknown
Launch date: May 9, 2021
Source: United States (US)
Launch site: AIR FORCE EASTERN TEST RANGE (AFETR)
Your satellite tracking list
Your tracking list is empty




NASA's NSSDC Master Catalog

Two Line Element Set (TLE):
1 48444U 21040S   23341.23524850 -.00000928  00000-0 -43443-4 0  9996
2 48444  53.0541 278.2493 0000840 110.4953 249.6126 15.06387729142515
Source of the keplerian elements: AFSPC